Location: Liscomb Game Sanctuary
(45.1633°N, 62.5575°W)
Time: 11:25:48
(UTC-04:00)

Amateur Radio Satellites - All Passes

Search period start: 16 January 2018 10:55
Search period end: 17 January 2018 10:55
Location: Liscomb Game Sanctuary, 45.1633°N, 62.5575°W

Satellite Date Start Highest point End Downlink Frequencies (MHz)
Time Altitude Azimuth
PRISM 16 Jan 10:58:45 11:01:52 21° 266° (W) 11:05:01 437.425
Oscar 19 16 Jan 10:58:54 10:59:20 10° 53° (NE) 10:59:46 437.125/150
AIST 2D 16 Jan 11:01:34 11:04:52 37° 262° (W) 11:08:11 435.315
QB50P2 16 Jan 11:02:15 11:06:26 66° 73° (ENE) 11:10:39 145.880/145.840
DELFI C3 16 Jan 11:10:26 11:12:31 14° 297° (WNW) 11:14:36 145.870
O/OREOS (USA 219) 16 Jan 11:18:41 11:23:11 84° 250° (WSW) 11:27:39 437.305
Max Valier Satellite 16 Jan 11:22:34 11:24:26 13° 297° (WNW) 11:26:18 145.860
PCSat 16 Jan 11:24:37 11:30:02 87° 302° (WNW) 11:35:30 145.827
BEESAT 3 16 Jan 11:28:02 11:32:02 79° 306° (NW) 11:36:03 437.485
BUGSAT 1 16 Jan 11:29:11 11:32:16 21° 65° (ENE) 11:35:24 437.445
SPROUT 16 Jan 11:34:09 11:36:31 14° 90° (E) 11:38:53 437.525
EO-79 16 Jan 11:35:13 11:39:22 61° 259° (W) 11:43:35 145.935-145.965
Gurwin Techsat 1B 16 Jan 11:38:05 11:41:33 18° 59° (ENE) 11:45:01 435.225
DUCHIFAT 1 16 Jan 11:40:50 11:44:59 70° 257° (WSW) 11:49:13 145.980
RS-15 16 Jan 11:52:26 12:03:48 40° 330° (NNW) 12:14:53 29.354- 29.394
LO-87 16 Jan 11:55:45 11:59:18 51° 286° (WNW) 12:02:49 145.935 - 145.965
BEESAT 2 16 Jan 12:02:50 12:06:49 66° 121° (ESE) 12:10:50 435.950
ESTCUBE 1 16 Jan 12:07:24 12:11:53 65° 287° (WNW) 12:16:18 437.505/2401.250
YUBILEINY 16 Jan 12:08:53 12:16:35 36° 276° (W) 12:24:13 435.215
POLYITAN 1 16 Jan 12:09:29 12:13:04 27° 265° (W) 12:16:43 437.675
AO-85 16 Jan 12:10:16 12:11:36 11° 107° (ESE) 12:12:57 145.980
VELOX 1 16 Jan 12:30:43 12:34:37 30° 96° (E) 12:38:30 145.980
NANOSAT C BR1 16 Jan 12:31:03 12:34:01 19° 268° (W) 12:37:00 145.865
Oscar 19 16 Jan 12:32:30 12:37:37 63° 72° (ENE) 12:42:47 437.125/150
QB50P2 16 Jan 12:40:57 12:42:39 12° 271° (W) 12:44:22 145.880/145.840
AO-91 16 Jan 12:51:29 12:54:52 82° 257° (WSW) 12:58:17 145.960
AO-7 16 Jan 12:52:44 12:59:20 27° 51° (NE) 13:05:57 .
BUGSAT 1 16 Jan 13:03:39 13:07:23 36° 262° (W) 13:11:13 437.445
DX 1 16 Jan 13:04:43 13:07:05 14° 91° (E) 13:09:25 434.975-435.025
BEESAT 3 16 Jan 13:08:08 13:10:13 14° 326° (NW) 13:12:18 437.485
SPROUT 16 Jan 13:08:32 13:12:45 57° 287° (WNW) 13:16:58 437.525
PCSat 16 Jan 13:10:20 13:14:13 19° 323° (NW) 13:18:07 145.827
Gurwin Techsat 1B 16 Jan 13:15:36 13:20:54 74° 257° (WSW) 13:26:14 435.225
ITAMSAT 1 16 Jan 13:30:12 13:32:54 14° 56° (ENE) 13:35:36 435.822/435.867
BEESAT 2 16 Jan 13:42:02 13:44:56 18° 322° (NW) 13:47:49 435.950
AO-85 16 Jan 13:47:16 13:51:15 74° 306° (NW) 13:55:33 145.980
SO-50 16 Jan 13:49:42 13:53:19 21° 37° (NE) 13:56:57 436.795
50 SAT 16 Jan 13:53:38 13:56:37 39° 99° (E) 13:59:34 437.505
VELOX 1 16 Jan 14:07:14 14:10:58 28° 294° (WNW) 14:14:42 145.980
RS-15 16 Jan 14:10:27 14:20:37 29° 4° (N) 14:30:25 29.354- 29.394
M-CUBED/EXP-1 PRIME 16 Jan 14:12:12 14:14:06 13° 56° (NE) 14:15:57 437.505
Oscar 19 16 Jan 14:13:52 14:17:23 18° 269° (W) 14:20:53 437.125/150
BEESAT 16 Jan 14:37:29 14:40:13 15° 90° (E) 14:42:58 436.000
UKube-1 16 Jan 14:38:37 14:42:57 84° 101° (E) 14:47:15 .
DX 1 16 Jan 14:39:21 14:43:38 59° 287° (WNW) 14:47:53 434.975-435.025
AO-7 16 Jan 14:42:51 14:51:13 83° 251° (WSW) 14:59:40 .
CUBESAT XI-V 16 Jan 15:04:26 15:06:20 12° 88° (E) 15:08:14 437.345
ITAMSAT 1 16 Jan 15:06:27 15:11:37 90° 249° (WSW) 15:16:50 435.822/435.867
MOZHAYETS 4 16 Jan 15:13:09 15:17:45 57° 100° (E) 15:22:18
50 SAT 16 Jan 15:26:54 15:27:59 11° 296° (WNW) 15:29:04 437.505
SO-50 16 Jan 15:29:34 15:34:16 73° 236° (SW) 15:39:00 436.795
AO-85 16 Jan 15:30:10 15:32:31 14° 329° (NNW) 15:34:56 145.980
ITUPSAT 1 16 Jan 15:30:27 15:35:07 47° 100° (E) 15:39:45 437.325
DOVE 4 16 Jan 15:38:54 15:43:02 43° 72° (ENE) 15:47:02 437.250
M-CUBED/EXP-1 PRIME 16 Jan 15:43:28 15:47:57 85° 251° (WSW) 15:52:10 437.505
CUTE-I 16 Jan 16:05:16 16:08:31 17° 58° (ENE) 16:11:47 437.470
BEESAT 16 Jan 16:13:41 16:18:27 66° 287° (WNW) 16:23:12 436.000
UKube-1 16 Jan 16:16:51 16:18:18 12° 302° (WNW) 16:19:46 .
HO-68 16 Jan 16:19:35 16:24:18 19° 51° (NE) 16:29:00 435.675
XW-2F 16 Jan 16:21:10 16:23:34 16° 65° (ENE) 16:25:59 145.980 - 146.000
RS-15 16 Jan 16:25:22 16:36:52 49° 37° (NE) 16:47:42 29.354- 29.394
XW-2D 16 Jan 16:25:49 16:28:40 20° 66° (ENE) 16:31:31 145.860 - 145.880
KAITUO 1B 16 Jan 16:28:44 16:30:55 15° 64° (ENE) 16:33:08 145.475/437.950
CUBESAT XI-V 16 Jan 16:39:37 16:44:15 75° 286° (WNW) 16:48:50 437.345
AO-7 16 Jan 16:39:50 16:45:10 18° 271° (W) 16:50:33 .
XW-2B 16 Jan 16:42:38 16:45:58 29° 69° (ENE) 16:49:18 145.730 - 145.750
NUDT-PHONESAT 16 Jan 16:48:19 16:51:16 23° 68° (ENE) 16:54:15 437.300
ITAMSAT 1 16 Jan 16:49:57 16:51:48 12° 272° (W) 16:53:39 435.822/435.867
MOZHAYETS 4 16 Jan 16:51:21 16:54:28 18° 298° (WNW) 16:57:33
LilacSat-2 16 Jan 17:03:15 17:07:03 55° 74° (ENE) 17:10:51 437.200
ITUPSAT 1 16 Jan 17:08:54 17:12:38 23° 297° (WNW) 17:16:20 437.325
XW-2C 16 Jan 17:12:03 17:15:51 65° 75° (ENE) 17:19:41 145.795 - 145.815
DOVE 4 16 Jan 17:17:53 17:20:55 18° 267° (W) 17:23:54 437.250
KKS-1 16 Jan 17:19:13 17:23:29 43° 99° (E) 17:27:44 437.445
SEEDS 16 Jan 17:26:19 17:29:08 18° 64° (ENE) 17:31:57 437.485
CUTE 1.7 + AOD 2 16 Jan 17:27:47 17:31:28 29° 68° (ENE) 17:35:09 437.475
CUTE-I 16 Jan 17:42:35 17:47:55 80° 257° (WSW) 17:53:16 437.470
STARS 16 Jan 17:49:47 17:53:53 36° 98° (E) 17:57:57 437.465
AO-73 16 Jan 17:52:17 17:52:38 10° 57° (ENE) 17:52:59 145.935
XW-2F 16 Jan 17:53:41 17:57:20 42° 261° (W) 18:01:00 145.980 - 146.000
XW-2D 16 Jan 17:59:07 18:02:37 33° 263° (W) 18:06:08 145.860 - 145.880
KAITUO 1B 16 Jan 18:00:53 18:04:31 45° 261° (W) 18:08:10 145.475/437.950
HO-68 16 Jan 18:03:51 18:11:00 82° 71° (ENE) 18:18:12 435.675
BEESAT 3 16 Jan 18:06:04 18:08:42 17° 37° (NE) 18:11:18 437.485
XW-2B 16 Jan 18:17:04 18:20:08 22° 266° (W) 18:23:12 145.730 - 145.750
NUDT-PHONESAT 16 Jan 18:21:44 18:24:58 28° 264° (W) 18:28:15 437.300
CUBEBUG 2 16 Jan 18:22:53 18:27:09 69° 75° (ENE) 18:31:38 437.445
XW-2A 16 Jan 18:27:07 18:29:53 23° 68° (ENE) 18:32:39 145.665 - 145.685
PCSat 16 Jan 18:27:43 18:32:02 23° 41° (NE) 18:36:21 145.827
Oscar 11 16 Jan 18:28:53 18:31:22 15° 62° (ENE) 18:33:52 .
RS-15 16 Jan 18:38:21 18:49:51 64° 244° (WSW) 19:00:44 29.354- 29.394
UWE-3 16 Jan 18:38:48 18:43:05 58° 73° (ENE) 18:47:32 435.000/436.395/437.385
LilacSat-2 16 Jan 18:40:01 18:41:39 12° 270° (W) 18:43:16 437.200
BEESAT 2 16 Jan 18:41:59 18:44:00 13° 33° (NNE) 18:46:01 435.950
NO-84 16 Jan 18:44:04 18:46:56 43° 138° (SE) 18:49:40 435.350 FM
XW-2C 16 Jan 18:49:49 18:50:26 10° 271° (W) 18:51:04 145.795 - 145.815
KKS-1 16 Jan 18:56:24 18:59:45 21° 297° (WNW) 19:03:05 437.445
AAUSAT CUBESAT 2 16 Jan 18:57:19 19:01:26 67° 75° (ENE) 19:05:33 437.432
SEEDS 16 Jan 19:00:21 19:04:27 48° 261° (W) 19:08:34 437.485
CUTE 1.7 + AOD 2 16 Jan 19:03:32 19:07:14 28° 265° (W) 19:10:57 437.475
FO-29 16 Jan 19:09:19 19:12:07 14° 88° (E) 19:14:53 435.910
STRAND 1 16 Jan 19:13:27 19:18:15 38° 97° (E) 19:23:02 437.568
ZACube-1 16 Jan 19:13:43 19:18:06 71° 75° (ENE) 19:22:37 437.345
AO-73 16 Jan 19:23:37 19:28:01 80° 77° (ENE) 19:32:33 145.935
STARS 16 Jan 19:26:29 19:30:02 24° 295° (WNW) 19:33:35 437.465
CUTE-I 16 Jan 19:27:49 19:28:48 10° 274° (W) 19:29:47 437.470
BEESAT 3 16 Jan 19:42:45 19:46:39 71° 238° (WSW) 19:50:30 437.485
HO-68 16 Jan 19:54:31 19:59:31 20° 270° (W) 20:04:33 435.675
XW-2A 16 Jan 19:59:46 20:02:29 22° 265° (W) 20:05:14 145.665 - 145.685
CUBEBUG 2 16 Jan 20:02:31 20:04:19 12° 273° (W) 20:06:08 437.445
Oscar 11 16 Jan 20:02:41 20:07:00 63° 259° (W) 20:11:20 .
PCSat 16 Jan 20:10:33 20:15:59 72° 242° (WSW) 20:21:22 145.827
UWE-3 16 Jan 20:17:24 20:19:57 15° 271° (W) 20:22:32 435.000/436.395/437.385
BEESAT 2 16 Jan 20:18:23 20:22:26 75° 53° (NE) 20:26:23 435.950
DELFI C3 16 Jan 20:21:08 20:24:47 38° 71° (ENE) 20:28:26 145.870
NO-84 16 Jan 20:21:46 20:24:11 24° 336° (NNW) 20:26:34 435.350 FM
Max Valier Satellite 16 Jan 20:27:51 20:31:08 30° 70° (ENE) 20:34:26 145.860
AO-85 16 Jan 20:35:43 20:39:54 28° 42° (NE) 20:44:20 145.980
AAUSAT CUBESAT 2 16 Jan 20:35:56 20:37:19 11° 271° (W) 20:38:43 437.432
TIGRISAT 16 Jan 20:42:36 20:44:33 12° 88° (E) 20:46:31 435.000
FO-29 16 Jan 20:52:38 20:57:57 71° 287° (WNW) 21:03:05 435.910
STRAND 1 16 Jan 20:52:53 20:57:18 30° 295° (WNW) 21:01:42 437.568
ZACube-1 16 Jan 20:53:04 20:54:54 12° 272° (W) 20:56:46 437.345
RS-15 16 Jan 20:54:31 20:59:33 14° 267° (W) 21:04:31 29.354- 29.394
UNISAT 6 16 Jan 20:55:26 20:58:44 19° 91° (E) 21:02:00 437.425
EO-88 16 Jan 20:58:10 21:01:40 44° 72° (ENE) 21:05:11 145.990 - 145.960
AO-73 16 Jan 21:03:37 21:04:50 11° 273° (W) 21:06:05 145.935
YUBILEINY 16 Jan 21:26:45 21:28:26 11° 69° (ENE) 21:30:07 435.215
ESTCUBE 1 16 Jan 21:33:35 21:36:34 18° 62° (ENE) 21:39:33 437.505/2401.250
DELFI C3 16 Jan 21:57:00 21:59:40 17° 268° (W) 22:02:20 145.870
PCSat 16 Jan 21:57:57 21:58:22 10° 259° (W) 21:58:47 145.827
BEESAT 2 16 Jan 21:58:11 21:59:32 11° 251° (WSW) 22:00:53 435.950
NO-84 16 Jan 22:00:59 22:02:08 12° 357° (N) 22:03:18 435.350 FM
Max Valier Satellite 16 Jan 22:02:07 22:04:58 20° 267° (W) 22:07:50 145.860
AO-85 16 Jan 22:15:46 22:20:35 54° 240° (WSW) 22:25:41 145.980
TIGRISAT 16 Jan 22:17:04 22:21:46 78° 286° (WNW) 22:26:28 435.000
ISS 16 Jan 22:24:29 22:27:25 31° 140° (SE) 22:30:23 437.550
AIST 2D 16 Jan 22:25:18 22:26:59 13° 91° (E) 22:28:40 435.315
SPROUT 16 Jan 22:29:32 22:31:59 15° 62° (ENE) 22:34:26 437.525
nSIGHT-1 16 Jan 22:30:35 22:33:39 50° 145° (SE) 22:36:45 .
UNISAT 6 16 Jan 22:31:09 22:35:42 52° 288° (WNW) 22:40:16 437.425
LO-87 16 Jan 22:32:52 22:36:24 80° 78° (ENE) 22:39:59 145.935 - 145.965
EO-88 16 Jan 22:33:40 22:35:32 13° 269° (W) 22:37:24 145.990 - 145.960
PRISM 16 Jan 22:36:34 22:40:26 41° 99° (E) 22:44:18 437.425
FO-29 16 Jan 22:41:02 22:42:01 10° 308° (NW) 22:42:58 435.910
ESTCUBE 1 16 Jan 23:08:28 23:12:56 57° 260° (W) 23:17:24 437.505/2401.250
YUBILEINY 16 Jan 23:14:36 23:23:09 58° 91° (E) 23:31:43 435.215
EO-79 16 Jan 23:18:23 23:21:25 19° 92° (E) 23:24:26 145.935-145.965
DUCHIFAT 1 16 Jan 23:23:36 23:26:16 16° 91° (E) 23:28:55 145.980
VELOX 1 16 Jan 23:29:35 23:33:35 35° 68° (ENE) 23:37:34 145.980
NO-84 16 Jan 23:38:07 23:40:12 18° 19° (NNE) 23:42:19 435.350 FM
POLYITAN 1 16 Jan 23:51:18 23:55:22 40° 98° (E) 23:59:25 437.675
TIGRISAT 16 Jan 23:56:33 23:57:38 11° 303° (WNW) 23:58:44 435.000
AIST 2D 16 Jan 23:57:04 00:00:21 40° 288° (WNW) 00:03:36 435.315
ISS 17 Jan 00:00:39 00:03:49 46° 339° (NNW) 00:07:00 437.550
DX 1 17 Jan 00:02:04 00:04:55 17° 62° (ENE) 00:07:46 434.975-435.025
UKube-1 17 Jan 00:02:21 00:03:30 11° 58° (ENE) 00:04:39 .
SPROUT 17 Jan 00:03:12 00:07:23 59° 259° (W) 00:11:37 437.525
nSIGHT-1 17 Jan 00:06:58 00:09:55 34° 343° (NNW) 00:12:53 .
NANOSAT C BR1 17 Jan 00:11:26 00:15:40 59° 101° (E) 00:19:52 145.865
PRISM 17 Jan 00:12:33 00:15:25 19° 296° (WNW) 00:18:17 437.425
QB50P2 17 Jan 00:20:24 00:24:44 87° 285° (WNW) 00:29:00 145.880/145.840
50 SAT 17 Jan 00:20:45 00:22:44 16° 66° (ENE) 00:24:44 437.505
AO-91 17 Jan 00:38:25 00:41:14 17° 93° (E) 00:44:13 145.960
Oscar 19 17 Jan 00:42:57 00:46:33 19° 91° (E) 00:50:06 437.125/150
BUGSAT 1 17 Jan 00:42:59 00:46:35 26° 95° (E) 00:50:11 437.445
EO-79 17 Jan 00:53:17 00:57:22 43° 289° (WNW) 01:01:25 145.935-145.965
DUCHIFAT 1 17 Jan 00:58:04 01:02:12 50° 288° (WNW) 01:06:19 145.980
VELOX 1 17 Jan 01:06:30 01:10:05 24° 266° (W) 01:13:40 145.980
YUBILEINY 17 Jan 01:12:30 01:20:23 35° 292° (WNW) 01:28:18 435.215
NO-84 17 Jan 01:14:46 01:17:39 83° 220° (SW) 01:20:41 435.350 FM
POLYITAN 1 17 Jan 01:27:38 01:30:53 21° 295° (WNW) 01:34:06 437.675
Gurwin Techsat 1B 17 Jan 01:29:51 01:34:46 37° 97° (E) 01:39:41 435.225
O/OREOS (USA 219) 17 Jan 01:32:42 01:37:12 78° 112° (ESE) 01:41:43 437.305
UKube-1 17 Jan 01:34:31 01:38:50 89° 271° (W) 01:43:09 .
DX 1 17 Jan 01:36:29 01:40:42 52° 259° (W) 01:44:57 434.975-435.025
ISS 17 Jan 01:38:01 01:40:48 25° 359° (N) 01:43:36 437.550
nSIGHT-1 17 Jan 01:43:59 01:46:41 24° 4° (N) 01:49:22 .
BEESAT 17 Jan 01:45:23 01:49:06 23° 63° (ENE) 01:52:50 436.000
NANOSAT C BR1 17 Jan 01:48:24 01:50:53 15° 298° (WNW) 01:53:23 145.865
50 SAT 17 Jan 01:51:39 01:54:17 25° 263° (W) 01:56:56 437.505
QB50P2 17 Jan 01:59:11 01:59:46 10° 302° (WNW) 02:00:22 145.880/145.840
CUBESAT XI-V 17 Jan 02:09:10 02:12:12 17° 61° (ENE) 02:15:14 437.345
AO-91 17 Jan 02:13:48 02:17:51 51° 287° (WNW) 02:22:20 145.960
MOZHAYETS 4 17 Jan 02:16:33 02:21:08 69° 74° (ENE) 02:25:46
BUGSAT 1 17 Jan 02:18:11 02:21:55 30° 292° (WNW) 02:25:37 437.445
Oscar 19 17 Jan 02:21:09 02:26:17 60° 289° (WNW) 02:31:21 437.125/150
ITUPSAT 1 17 Jan 02:38:52 02:43:36 70° 73° (ENE) 02:48:23 437.325
AO-7 17 Jan 02:42:48 02:49:51 29° 94° (E) 02:56:50 .
Gurwin Techsat 1B 17 Jan 03:09:57 03:14:38 32° 295° (WNW) 03:19:18 435.225
O/OREOS (USA 219) 17 Jan 03:14:35 03:17:11 15° 312° (NW) 03:19:48 437.305
ISS 17 Jan 03:14:44 03:17:50 38° 18° (NNE) 03:20:57 437.550
ITAMSAT 1 17 Jan 03:17:36 03:21:59 27° 95° (E) 03:26:21 435.822/435.867
nSIGHT-1 17 Jan 03:20:12 03:23:19 50° 23° (NNE) 03:26:26 .
BEESAT 17 Jan 03:22:02 03:26:35 45° 261° (W) 03:31:11 436.000
CUBESAT XI-V 17 Jan 03:44:26 03:49:05 62° 259° (W) 03:53:45 437.345
MOZHAYETS 4 17 Jan 03:56:25 03:58:46 14° 271° (W) 04:01:07
KKS-1 17 Jan 04:18:53 04:23:09 52° 71° (ENE) 04:27:28 437.445
ITUPSAT 1 17 Jan 04:19:22 04:21:55 14° 270° (W) 04:24:29 437.325
AO-7 17 Jan 04:34:53 04:43:13 69° 294° (WNW) 04:51:29 .
STARS 17 Jan 04:48:01 04:52:06 42° 70° (ENE) 04:56:14 437.465
ISS 17 Jan 04:51:13 04:54:21 43° 217° (SW) 04:57:29 437.550
M-CUBED/EXP-1 PRIME 17 Jan 04:54:29 04:57:48 42° 104° (ESE) 05:00:56 437.505
nSIGHT-1 17 Jan 04:56:36 04:59:21 27° 221° (SW) 05:02:06 .
ITAMSAT 1 17 Jan 04:56:42 05:01:35 42° 292° (WNW) 05:06:27 435.822/435.867
STRAND 1 17 Jan 04:57:07 04:58:00 10° 54° (NE) 04:58:53 437.568
DOVE 4 17 Jan 05:12:07 05:16:23 88° 275° (W) 05:20:49 437.250
XW-2F 17 Jan 05:24:18 05:26:39 16° 92° (E) 05:29:00 145.980 - 146.000
FO-29 17 Jan 05:25:27 05:28:03 13° 54° (NE) 05:30:31 435.910
XW-2D 17 Jan 05:29:36 05:32:29 20° 93° (E) 05:35:19 145.860 - 145.880
KAITUO 1B 17 Jan 05:30:48 05:32:50 14° 91° (E) 05:34:51 145.475/437.950
HO-68 17 Jan 05:31:59 05:35:02 13° 85° (E) 05:38:04 435.675
SO-50 17 Jan 05:46:37 05:50:00 21° 112° (ESE) 05:53:24 436.795
XW-2B 17 Jan 05:46:39 05:50:01 30° 96° (E) 05:53:22 145.730 - 145.750
NUDT-PHONESAT 17 Jan 05:49:25 05:52:20 22° 94° (E) 05:55:13 437.300
KKS-1 17 Jan 05:57:11 06:00:01 17° 268° (W) 06:02:52 437.445
CUTE-I 17 Jan 05:57:41 06:02:32 35° 97° (E) 06:07:22 437.470
LilacSat-2 17 Jan 06:08:23 06:12:10 62° 101° (E) 06:15:54 437.200
CUBEBUG 2 17 Jan 06:12:42 06:15:16 14° 89° (E) 06:17:50 437.445
XW-2C 17 Jan 06:16:24 06:20:11 72° 102° (ESE) 06:23:55 145.795 - 145.815
STARS 17 Jan 06:25:24 06:28:37 20° 267° (W) 06:31:51 437.465
UWE-3 17 Jan 06:28:25 06:29:53 11° 87° (E) 06:31:22 435.000/436.395/437.385
AO-7 17 Jan 06:29:10 06:34:32 19° 316° (NW) 06:39:54 .
M-CUBED/EXP-1 PRIME 17 Jan 06:29:58 06:31:51 14° 303° (WNW) 06:33:40 437.505
FALCONSAT 3 17 Jan 06:30:50 06:32:41 13° 166° (SSE) 06:34:32 435.103
STRAND 1 17 Jan 06:31:11 06:36:13 67° 72° (ENE) 06:41:18 437.568
SEEDS 17 Jan 06:42:17 06:45:38 23° 94° (E) 06:48:57 437.485
CUTE 1.7 + AOD 2 17 Jan 06:45:33 06:49:34 41° 98° (E) 06:53:33 437.475
RS-15 17 Jan 06:55:57 07:03:27 19° 96° (E) 07:10:54 29.354- 29.394
XW-2F 17 Jan 06:57:25 07:00:56 38° 289° (WNW) 07:04:24 145.980 - 146.000
ZACube-1 17 Jan 07:01:35 07:03:43 13° 88° (E) 07:05:51 437.345
XW-2D 17 Jan 07:03:20 07:06:40 30° 291° (WNW) 07:09:59 145.860 - 145.880
KAITUO 1B 17 Jan 07:03:29 07:07:01 42° 288° (WNW) 07:10:31 145.475/437.950
FO-29 17 Jan 07:05:14 07:12:10 64° 72° (ENE) 07:18:17 435.910
AO-73 17 Jan 07:10:53 07:13:21 14° 89° (E) 07:15:48 145.935
HO-68 17 Jan 07:16:48 07:23:59 73° 104° (ESE) 07:31:07 435.675
XW-2A 17 Jan 07:18:58 07:21:19 17° 93° (E) 07:23:38 145.665 - 145.685
XW-2B 17 Jan 07:21:09 07:24:01 21° 293° (WNW) 07:26:52 145.730 - 145.750
NUDT-PHONESAT 17 Jan 07:23:00 07:26:09 27° 291° (WNW) 07:29:17 437.300
SO-50 17 Jan 07:25:46 07:30:06 50° 311° (NW) 07:34:33 436.795
CUTE-I 17 Jan 07:37:47 07:42:33 34° 294° (WNW) 07:47:18 437.470
TIGRISAT 17 Jan 07:43:22 07:45:40 14° 60° (ENE) 07:47:58 435.000
LilacSat-2 17 Jan 07:44:30 07:45:55 12° 298° (WNW) 07:47:18 437.200
CUBEBUG 2 17 Jan 07:47:36 07:52:20 69° 286° (WNW) 07:57:03 437.445
Oscar 11 17 Jan 07:48:24 07:51:41 21° 92° (E) 07:54:56 .
XW-2C 17 Jan 07:53:12 07:53:46 10° 299° (WNW) 07:54:19 145.795 - 145.815
UNISAT 6 17 Jan 07:56:20 07:59:34 20° 63° (ENE) 08:02:50 437.425
UWE-3 17 Jan 08:02:14 08:06:56 84° 281° (WNW) 08:11:35 435.000/436.395/437.385
FALCONSAT 3 17 Jan 08:08:28 08:11:01 18° 181° (S) 08:13:35 435.103
AAUSAT CUBESAT 2 17 Jan 08:12:22 08:16:30 85° 284° (WNW) 08:20:35 437.432
STRAND 1 17 Jan 08:12:46 08:15:54 16° 270° (W) 08:19:02 437.568
SEEDS 17 Jan 08:17:37 08:21:22 33° 291° (WNW) 08:25:04 437.485
CUTE 1.7 + AOD 2 17 Jan 08:22:02 08:25:07 20° 295° (WNW) 08:28:11 437.475
ZACube-1 17 Jan 08:35:54 08:40:30 71° 285° (WNW) 08:45:00 437.345
AO-73 17 Jan 08:45:28 08:50:00 64° 287° (WNW) 08:54:28 145.935
XW-2A 17 Jan 08:51:06 08:54:02 27° 290° (WNW) 08:56:56 145.665 - 145.685
FO-29 17 Jan 08:51:57 08:57:30 25° 267° (W) 09:02:38 435.910
RS-15 17 Jan 09:01:31 09:13:44 72° 118° (ESE) 09:25:47 29.354- 29.394
HO-68 17 Jan 09:05:25 09:11:05 26° 304° (NW) 09:16:45 435.675
SO-50 17 Jan 09:09:43 09:11:39 12° 333° (NNW) 09:13:37 436.795
TIGRISAT 17 Jan 09:17:23 09:21:44 71° 258° (WSW) 09:26:14 435.000
YUBILEINY 17 Jan 09:22:24 09:30:02 32° 66° (ENE) 09:37:34 435.215
Oscar 11 17 Jan 09:23:55 09:27:58 39° 290° (WNW) 09:31:59 .
PRISM 17 Jan 09:27:22 09:31:09 38° 70° (ENE) 09:34:56 437.425
Max Valier Satellite 17 Jan 09:28:54 09:32:13 30° 96° (E) 09:35:29 145.860
DELFI C3 17 Jan 09:29:55 09:33:43 47° 99° (E) 09:37:30 145.870
UNISAT 6 17 Jan 09:31:42 09:35:55 46° 262° (W) 09:40:16 437.425
BEESAT 3 17 Jan 09:36:34 09:37:28 11° 108° (ESE) 09:38:20 437.485
UWE-3 17 Jan 09:41:05 09:42:36 11° 302° (WNW) 09:44:06 435.000/436.395/437.385
QB50P2 17 Jan 09:42:51 09:43:33 10° 58° (ENE) 09:44:16 145.880/145.840
FALCONSAT 3 17 Jan 09:47:48 09:49:21 12° 196° (SSW) 09:50:53 435.103
EO-88 17 Jan 09:57:51 10:01:21 42° 99° (E) 10:04:48 145.990 - 145.960
O/OREOS (USA 219) 17 Jan 10:01:52 10:05:36 25° 55° (NE) 10:09:20 437.305
EO-79 17 Jan 10:12:48 10:15:45 19° 64° (ENE) 10:18:44 145.935-145.965
DUCHIFAT 1 17 Jan 10:17:27 10:20:03 16° 62° (ENE) 10:22:41 145.980
AIST 2D 17 Jan 10:32:12 10:35:44 89° 79° (ENE) 10:39:17 435.315
POLYITAN 1 17 Jan 10:45:25 10:49:22 39° 70° (ENE) 10:53:20 437.675
